Location: Carbonear
(47.7333°N, 53.2500°W)
Time: 05:30:03
(UTC+00:00)

Oscar 11 - Pass Details

Date: 02 December 2022
Orbit: 611 x 621 km, 97.6° (Epoch: 28 January)

Event Time Altitude Azimuth Distance (km) Brightness Sun altitude
Rises 20:13:30 0° 199° (SSW) 2,881 11.3 -5.3°
Reaches altitude 10° 20:16:03 10° 214° (SW) 1,979 10.8 -5.7°
Maximum altitude 20:19:29 23° 267° (W) 1,323 9.8 -6.2°
Drops below altitude 10° 20:22:56 10° 320° (NW) 1,987 9.9 -6.7°
Sets 20:25:31 0° 335° (NNW) 2,896 10.5 -7.1°
